Location: *
(46.1200°N, 11.2700°E)
Time: 20:17:25
(UTC+00:00)

Cosmos 2242 Rocket - Pass Details

Date: 02 March 2021
Orbit: 617 x 652 km, 82.5° (Epoch: 17 April)

Event Time Altitude Azimuth Distance (km) Brightness Sun altitude
Rises 18:43:22 0° 350° (N) 2,962 7.3 -18.2°
Reaches altitude 10° 18:45:38 10° 351° (N) 2,043 6.4 -18.6°
Maximum altitude 18:50:10 88° 268° (W) 642 3.5 -19.3°
Drops below altitude 10° 18:54:38 10° 174° (S) 2,004 6.0 -20.1°
Enters shadow 18:54:52 - 174° (S) 2,097 6.1 -20.1°
